This is the latest recevied weather packets stored in our database for station/object K5NWZ. If no packets are shown the sender has not sent any weather packets the latest 10 day(s).
| Time | Temp. | Humidity | Pressure | Rain* | Wind** | Luminosity | Snow |
|---|---|---|---|---|---|---|---|
| 1777964292 | 6.11° C | 88% | 1021.9 hPa | 3.05 mm | - | 0 W/m² | - |
| 1777963989 | 6.67° C | 87% | 1021.9 hPa | 3.05 mm | - | 0 W/m² | - |
| 1777963687 | 6.67° C | 86% | 1021.8 hPa | 1.27 mm | - | 0 W/m² | - |
| 1777963384 | 6.67° C | 84% | 1021.7 hPa | 0 mm | - | 0 W/m² | - |
| 1777963082 | 7.22° C | 83% | 1021.3 hPa | 0 mm | - | 0 W/m² | - |
| 1777962778 | 7.22° C | 82% | 1021.6 hPa | 0 mm | - | 0 W/m² | - |
| 1777962474 | 7.78° C | 81% | 1021.6 hPa | 0 mm | - | 0 W/m² | - |
| 1777962172 | 7.78° C | 81% | 1021.4 hPa | 0 mm | - | 0 W/m² | - |
| 1777961868 | 7.78° C | 82% | 1021.3 hPa | 0 mm | - | 0 W/m² | - |
| 1777961566 | 8.33° C | 81% | 1021.2 hPa | 0 mm | - | 0 W/m² | - |
| 1777961263 | 8.33° C | 78% | 1021 hPa | 0 mm | - | 0 W/m² | - |
| 1777960956 | 8.89° C | 76% | 1021.1 hPa | 0 mm | - | 0 W/m² | - |
| 1777960650 | 10° C | 85% | 1021.1 hPa | 0 mm | - | 0 W/m² | - |
| 1777960347 | 10° C | 84% | 1020.6 hPa | 0 mm | - | 0 W/m² | - |
| 1777960045 | 9.44° C | 84% | 1020.7 hPa | 0 mm | - | 0 W/m² | - |
| 1777959742 | 9.44° C | 85% | 1020.4 hPa | 0 mm | - | 0 W/m² | - |
| 1777959440 | 9.44° C | 85% | 1020.4 hPa | 0 mm | - | 0 W/m² | - |
| 1777959136 | 9.44° C | 85% | 1020.3 hPa | 0 mm | - | 0 W/m² | - |
| 1777958834 | 9.44° C | 85% | 1020.3 hPa | 0 mm | - | 0 W/m² | - |
| 1777958531 | 10° C | 85% | 1020.4 hPa | 0 mm | - | 0 W/m² | - |
| 1777958227 | 10° C | 84% | 1019.9 hPa | 0 mm | - | 0 W/m² | - |
| 1777957925 | 10° C | 84% | 1019.8 hPa | 0 mm | - | 0 W/m² | - |
| 1777957623 | 10° C | 83% | 1020.2 hPa | 0 mm | - | 0 W/m² | - |
| 1777957322 | 10° C | 83% | 1020.1 hPa | 0 mm | - | 0 W/m² | - |
| 1777957021 | 10° C | 83% | 1020.1 hPa | 0 mm | - | 0 W/m² | - |
* Rain latest hour (hover to see other rain measurements)
** Current wind speed in m/s (hover to see current wind gust speed)